Main page
METAR-TAF:

METAR-TAF

Airports :

Hamadan International Airport

Hamedan, Iran

latitude: 34-52-05N, longitude: 048-33-08E, elevation: 1757 m

Current weather observation

The report was made 34 minutes ago, at 13:00 UTC
Wind 10 kt from the East/Southeast
Temperature 9°C
Humidity 81%
Pressure 1018 hPa
Visibility 10 km or more
Few clouds at a height of 3500 ft, Cumulonimbus.
Scattered clouds at a height of 4000 ft

METAR: OIHH 151300Z 11010KT 9999 FEW035CB SCT040 09/06 Q1018

Time: 17:04 (13:34 UTC)


TAF: missing

Weather observations and forecasts of more than 4000 airports (METAR and TAF reports).

The available stations are represented by yellow and red dots on the map.

Hover mouse over dot to see the name of the station.

Then click to see weather observations and forecasts.

To change the map : click on the green buttons with a black cross to zoom in, on the green button with a dash to zoom out, or on the green arrows for adjacent maps.


METAR-TAF: